User: anonymous   Login
Location: Unspecified
(0.0000°N, 0.0000°E)
Time: 07:18:21
(UTC+00:00)
Language:

Kosmos-1333 - Orbit

View from above orbital plane
View from above orbital plane
View from above satellite
View from above satellite

Ground track
Ground track

The orbit data is extracted from the following two-line orbital elements,

1 13033U 82003A   23088.71197642  .00000050  00000-0  37683-4 0  9997
2 13033  82.9411 313.7150 0031413 217.9324 205.2492 13.73296620 64842
Epoch (UTC): 29 March 2023 17:05:14
Eccentricity: 0.0031413
inclination: 82.9411°
perigee height: 964 km
apogee height: 1011 km
right ascension of ascending node: 313.7150°
argument of perigee: 217.9324°
revolutions per day: 13.73296620
mean anomaly at epoch: 205.2492°
orbit number at epoch: 6484

The dashed part of the orbit path shows where the satellite is in the earth's shadow,  

DLR